View from above orbital plane
|
View from above satellite
|
Ground track
|
The orbit data is extracted from the following two-line orbital elements,
1 43937U 19003F 21024.66366311 .00001611 00000-0 66616-4 0 9998
2 43937 97.1980 73.4958 0024225 158.4586 201.7677 15.25115860112345
Epoch (UTC): | 24 January 2021 15:55:40 |
Eccentricity: | 0.0024225 |
inclination: | 97.1980° |
perigee height: | 474 km |
apogee height: | 507 km |
right ascension of ascending node: | 73.4958° |
argument of perigee: | 158.4586° |
revolutions per day: | 15.25115860 |
mean anomaly at epoch: | 201.7677° |
orbit number at epoch: | 11234 |
The dashed part of the orbit path shows where the satellite is in the earth's shadow,
|
|